{"data":{"norad_id":63486,"intl_designator":"2025-070AC","name":"STARLINK-33716","alt_names":[],"object_type":"PAYLOAD","status":"ACTIVE","operator":null,"country":"US","launch_date":"2025-04-06","launch_site_code":"AFETR","launch_vehicle":null,"mission":null,"orbit_class":"UNKNOWN","rcs_meters":null,"size_class":null,"mass_kg":null,"dimensions":null,"purposes":["comms"],"wikipedia_slug":null,"has_3d_model":false,"image_url":null,"decayed_at":null,"tle_current":{"epoch":"2026-09-20T23:12:50.325696Z","epoch_age_seconds":116091,"freshness":"FRESH","line1":"1 63486U 25070AC  26263.96724914  .00008663  00000+0  32390-3 0  9994","line2":"2 63486  43.0005 236.7889 0004302 298.8376  61.2043 15.27582657 82842","mean_motion":15.27582657,"eccentricity":0.0004302,"inclination_deg":43.0005,"raan_deg":236.7889,"arg_perigee_deg":298.8376,"mean_anomaly_deg":61.2043,"bstar":0.0003239,"rev_number":8284,"period_min":94.266584750837,"perigee_km":480.08946120149,"apogee_km":485.99281887318,"semimajor_km":6861.1781400373,"source":"CELESTRAK","updated_at":"2026-09-21T09:00:35.012562Z"}}}